Location: Newark
(47.7394°N, 8.0008°E)
Time: 07:04:14
(UTC+00:00)

N. Korean satellite - Pass Details

Date: 20 December 2019
Orbit: 454 x 507 km, 97.2° (Epoch: 27 January)

Event Time Altitude Azimuth Distance (km) Brightness Sun altitude
Rises 17:38:05 0° 213° (SSW) 2,584 11.0 -19.1°
Reaches altitude 10° 17:41:14 10° 243° (WSW) 1,697 10.5 -19.7°
Maximum altitude 17:42:53 13° 270° (W) 1,535 10.1 -19.9°
Drops below altitude 10° 17:44:32 10° 297° (WNW) 1,692 10.0 -20.2°
Sets 17:47:40 0° 328° (NNW) 2,567 10.5 -20.7°
